TimePDT,TemperatureF,Dew PointF,Humidity,Sea Level PressureIn,VisibilityMPH,Wind Direction,Wind SpeedMPH,Gust SpeedMPH,PrecipitationIn,Events,Conditions,WindDirDegrees,DateUTC
12:56 AM,37.0,23.0,57,30.15,10.0,Calm,Calm,-,N/A,,Clear,0,2012-10-27 07:56:00
1:56 AM,35.1,21.9,59,30.14,10.0,NNW,6.9,-,N/A,,Clear,340,2012-10-27 08:56:00
2:56 AM,39.0,23.0,53,30.13,10.0,NNW,8.1,-,N/A,,Clear,340,2012-10-27 09:56:00
3:56 AM,39.0,21.9,50,30.12,10.0,NNW,6.9,-,N/A,,Clear,340,2012-10-27 10:56:00
4:56 AM,35.1,21.9,59,30.12,10.0,North,5.8,-,N/A,,Clear,10,2012-10-27 11:56:00
5:56 AM,36.0,23.0,59,30.13,10.0,NNW,3.5,-,N/A,,Clear,330,2012-10-27 12:56:00
6:56 AM,34.0,21.9,61,30.14,10.0,North,4.6,-,N/A,,Clear,360,2012-10-27 13:56:00
7:56 AM,33.1,23.0,66,30.17,10.0,East,3.5,-,N/A,,Clear,100,2012-10-27 14:56:00
8:56 AM,48.9,25.0,39,30.15,10.0,Calm,Calm,-,N/A,,Clear,0,2012-10-27 15:56:00
9:56 AM,57.2,28.4,33,30.17,10.0,NNW,3.5,-,N/A,,Clear,340,2012-10-27 16:56:00
10:56 AM,63.0,28.0,27,30.09,10.0,Variable,3.5,-,N/A,,Clear,0,2012-10-27 17:56:00
11:56 AM,66.2,30.2,26,30.13,10.0,Variable,3.5,-,N/A,,Clear,0,2012-10-27 18:56:00
12:56 PM,70.0,28.0,21,30.02,10.0,Calm,Calm,-,N/A,,Clear,0,2012-10-27 19:56:00
1:56 PM,72.0,28.0,20,29.99,10.0,West,4.6,-,N/A,,Clear,260,2012-10-27 20:56:00
2:56 PM,73.0,25.0,17,29.97,10.0,Calm,Calm,-,N/A,,Clear,0,2012-10-27 21:56:00
3:56 PM,73.0,26.1,17,29.96,10.0,SE,4.6,-,N/A,,Clear,130,2012-10-27 22:56:00
4:56 PM,73.0,26.1,17,29.97,10.0,Variable,6.9,-,N/A,,Clear,0,2012-10-27 23:56:00
5:56 PM,66.0,27.0,23,30.00,10.0,South,5.8,-,N/A,,Clear,180,2012-10-28 00:56:00
6:56 PM,63.0,28.9,28,30.03,10.0,South,8.1,-,N/A,,Clear,190,2012-10-28 01:56:00
7:56 PM,63.0,28.9,28,30.04,10.0,South,11.5,-,N/A,,Clear,180,2012-10-28 02:56:00
8:56 PM,55.9,28.9,36,30.05,10.0,Calm,Calm,-,N/A,,Clear,0,2012-10-28 03:56:00
9:56 PM,55.9,28.9,36,30.06,10.0,Calm,Calm,-,N/A,,Clear,0,2012-10-28 04:56:00
10:56 PM,46.9,28.0,48,30.07,10.0,NE,5.8,-,N/A,,Clear,40,2012-10-28 05:56:00
11:56 PM,44.1,28.0,53,30.08,10.0,WNW,5.8,-,N/A,,Clear,300,2012-10-28 06:56:00